AJ5TT Weather Reports


time (UTC)temp
C
wind
direction
speed
KPH
gust
KPH
rain 1hr
cm
rain 24hr
cm
rain mn
cm
humidity
%
barometer
mb
20260509030058 23 61 1.6 6.4 0.00 0.00 0.00 92 1010.6
20260509024603 23 63 1.6 6.4 0.00 0.00 0.00 92 1010.6
20260509023056 23 0 0.0 3.2 0.00 0.00 0.00 92 1010.4
20260509021556 23 14 0.0 4.8 0.00 0.00 0.00 91 1010.5
20260509020057 23 69 1.6 6.4 0.00 0.00 0.00 91 1010.0
20260509014553 23 44 3.2 9.7 0.00 0.00 0.00 91 1010.1
20260509013110 23 76 1.6 4.8 0.00 0.00 0.00 91 1010.2
20260509011602 23 61 1.6 9.7 0.00 0.00 0.00 91 1010.2
20260509010058 23 309 1.6 6.4 0.00 0.00 0.00 91 1009.9
20260509004601 23 38 1.6 12.9 0.00 0.00 0.00 90 1010.1
20260509003053 23 39 4.8 9.7 0.00 0.00 0.00 90 1010.2
20260509001554 23 46 3.2 9.7 0.00 0.00 0.00 89 1009.6
20260509000053 24 45 3.2 8.0 0.00 0.00 0.00 88 1009.8
20260508234556 24 22 1.6 4.8 0.00 0.00 0.00 88 1010.1
20260508233055 24 39 3.2 11.3 0.00 0.00 0.00 87 1010.4
20260508231556 24 37 1.6 6.4 0.00 0.00 0.00 86 1009.8
20260508230056 24 73 1.6 6.4 0.00 0.00 0.00 85 1010.2
20260508224615 25 267 1.6 9.7 0.00 0.00 0.00 84 1010.1
20260508223057 24 360 1.6 6.4 0.00 0.00 0.00 86 1009.9
20260508221611 23 48 3.2 6.4 0.00 0.00 0.00 86 1010.3
20260508220100 23 61 4.8 9.7 0.00 0.00 0.00 86 1010.3
20260508214600 23 9 0.0 3.2 0.00 0.00 0.00 86 1010.5
20260508213058 23 332 0.0 3.2 0.00 0.00 0.00 86 1010.6
20260508211600 23 312 1.6 3.2 0.00 0.00 0.00 85 1010.6
20260508210110 23 63 3.2 9.7 0.00 0.00 0.00 84 1010.7
20260508204610 24 0 0.0 8.0 0.00 0.00 0.00 85 1010.8
20260508203108 24 5 1.6 8.0 0.00 0.00 0.00 84 1010.9
20260508201609 23 49 3.2 8.0 0.00 0.00 0.00 84 1011.3
20260508200111 23 323 0.0 6.4 0.00 0.00 0.00 83 1011.3
20260508194602 25 145 1.6 9.7 0.00 0.00 0.00 83 1011.4
20260508193101 23 79 4.8 9.7 0.00 0.00 0.00 84 1011.5
20260508191553 23 75 3.2 12.9 0.00 0.00 0.00 86 1011.5
20260508190050 21 63 4.8 16.1 0.00 0.00 0.00 91 1011.5
20260508184553 20 30 6.4 17.7 0.00 0.00 0.00 92 1011.8
20260508183130 20 63 4.8 14.5 0.00 0.00 0.00 92 1011.9
20260508181609 20 9 6.4 16.1 0.00 0.00 0.00 91 1012.4
20260508180052 20 40 6.4 12.9 0.00 0.00 0.00 91 1012.3
20260508174555 20 9 4.8 9.7 0.00 0.00 0.00 91 1012.5
20260508173102 20 19 1.6 9.7 0.00 0.00 0.00 91 1012.6
20260508171558 20 74 4.8 16.1 0.00 0.00 0.00 92 1012.2
20260508170052 20 40 6.4 14.5 0.00 0.00 0.00 92 1012.8
20260508164552 20 57 4.8 12.9 0.00 0.00 0.00 92 1013.4
20260508163054 20 74 4.8 11.3 0.00 0.00 0.00 92 1013.5
20260508161608 20 25 3.2 11.3 0.00 0.00 0.00 92 1013.8
20260508154557 20 23 6.4 16.1 0.00 0.00 0.00 92 1013.9
20260508153058 20 32 4.8 16.1 0.00 0.00 0.00 93 1014.0
20260508151555 19 51 4.8 14.5 0.00 0.00 0.00 93 1013.7
20260508150122 19 24 6.4 16.1 0.00 0.00 0.00 93 1013.6
20260508144602 19 36 4.8 11.3 0.00 0.00 0.00 93 1013.6
20260508143054 19 352 4.8 6.4 0.00 0.00 0.00 93 1013.9
20260508141603 19 17 1.6 4.8 0.00 0.00 0.00 93 1014.1
20260508140059 19 24 3.2 8.0 0.00 0.00 0.00 92 1013.8
20260508134551 20 17 4.8 8.0 0.00 0.00 0.00 92 1013.6
20260508133052 20 47 0.0 4.8 0.00 0.00 0.00 92 1013.7
20260508131558 19 58 4.8 9.7 0.00 0.00 0.00 92 1013.9
20260508130056 20 36 3.2 16.1 0.00 0.00 0.00 92 1013.7
20260508124600 20 35 4.8 11.3 0.00 0.00 0.00 92 1013.7
20260508123056 20 44 6.4 12.9 0.00 0.00 0.00 91 1013.8
20260508121559 20 19 4.8 8.0 0.00 0.00 0.00 91 1013.7
20260508120103 20 36 4.8 11.3 0.00 0.00 0.00 91 1013.1
20260508114604 20 57 3.2 8.0 0.00 0.00 0.00 91 1013.0
20260508113125 20 42 3.2 6.4 0.00 0.00 0.00 91 1013.4
20260508111553 20 28 3.2 6.4 0.00 0.00 0.00 91 1013.5
20260508110057 20 30 3.2 12.9 0.00 0.00 0.00 91 1013.6
20260508104559 21 37 4.8 11.3 0.00 0.00 0.00 91 1012.8
20260508103104 21 43 4.8 12.9 0.00 0.00 0.00 91 1013.0
20260508101557 21 39 8.0 16.1 0.00 0.00 0.00 91 1013.2
20260508100100 22 52 1.6 6.4 0.00 0.00 0.00 91 1012.9
20260508094553 22 24 1.6 4.8 0.00 0.00 0.00 91 1013.3
20260508093055 22 45 1.6 6.4 0.00 0.00 0.00 91 1013.3
20260508091554 22 66 1.6 4.8 0.00 0.00 0.00 90 1013.3
20260508090054 22 61 0.0 3.2 0.00 0.00 0.00 90 1013.3
20260508084557 22 291 0.0 4.8 0.00 0.00 0.00 88 1013.1
20260508083053 22 0 0.0 3.2 0.00 0.00 0.00 87 1013.4
20260508081601 22 256 1.6 3.2 0.00 0.00 0.00 86 1013.3
20260508080053 22 290 1.6 4.8 0.00 0.00 0.00 84 1013.4
20260508074556 23 47 0.0 3.2 0.00 0.00 0.00 83 1013.1
20260508073103 23 0 0.0 3.2 0.00 0.00 0.00 84 1013.5
20260508071553 23 0 1.6 6.4 0.00 0.00 0.00 84 1013.8
20260508070101 23 123 1.6 12.9 0.00 0.00 0.00 83 1013.6
20260508064606 23 52 3.2 9.7 0.00 0.00 0.00 83 1013.5
20260508063055 23 41 3.2 6.4 0.00 0.00 0.00 83 1013.2
20260508061600 23 20 0.0 3.2 0.00 0.00 0.00 83 1013.9
20260508060100 23 0 0.0 3.2 0.00 0.00 0.00 82 1014.1
20260508054623 23 53 0.0 4.8 0.00 0.00 0.00 81 1013.8
20260508053056 23 76 4.8 11.3 0.00 0.00 0.00 81 1013.3
20260508051557 23 20 0.0 4.8 0.00 0.00 0.00 81 1013.4
20260508050058 23 46 1.6 8.0 0.00 0.00 0.00 80 1013.4
20260508044555 23 360 1.6 4.8 0.00 0.00 0.00 80 1013.2
20260508043057 23 36 1.6 4.8 0.00 0.00 0.00 79 1013.7
20260508041554 23 65 1.6 4.8 0.00 0.00 0.00 78 1014.1
20260508040106 23 331 0.0 8.0 0.00 0.00 0.00 78 1014.9
20260508034556 23 63 3.2 9.7 0.00 0.00 0.00 77 1014.9
20260508033057 23 65 3.2 8.0 0.00 0.00 0.00 77 1014.7
20260508031603 23 82 4.8 12.9 0.00 0.00 0.00 75 1014.5